Regional Weather Roundup
Issued by NWS

Home | Current Version | Previous Version | Graphics & Text | Print | Product List | Glossary On
Versions: 1 2 3 4 5 6 7 8 9 10 11 12 13 14 15 16 17 18 19 20 21 22 23 24 25 26 27 28 29 30 31 32 33 34 35 36 37 38 39 40 41 42 43 44 45 46 47 48 49 50
000
ASUS43 KMKX 012321
RWRWI

WISCONSIN REGIONAL WEATHER ROUNDUP
NATIONAL WEATHER SERVICE MILWAUKEE/SULLIVAN WI
600 PM CDT WED APR 01 2015

NOTE: "FAIR" INDICATES FEW OR NO CLOUDS BELOW 12,000 FEET WITH NO
SIGNIFICANT WEATHER AND/OR OBSTRUCTIONS TO VISIBILITY.

WIZ001-002-006>008-014>016-023>028-020000-
NORTHWEST WISCONSIN

CITY           SKY/WX    TMP DP  RH WIND       PRES   REMARKS
SUPERIOR ARPT  CLOUDY    35  33  90 NE13G18   29.51F WCI  27
ASHLAND        CLOUDY    66  38  35 S12G23    29.48F
HAYWARD        CLOUDY    63  38  39 S13       29.54F
SIREN          CLOUDY    70  37  29 S6        29.48F
CUMBERLAND     CLOUDY    70  34  26 S15G24    29.52F
RICE LAKE      CLOUDY    75  32  20 S14G33    29.55F
CHETEK         CLOUDY    76  36  23 S18G24    29.54F
LADYSMITH      CLOUDY    66  39  36 SE3       29.58F
EAU CLAIRE     MOSUNNY   78  32  18 S23G35    29.55F
MENOMONIE      MOSUNNY   77  30  18 S23G41    29.54F
NEW RICHMOND   PTSUNNY   76  33  20 S29G43    29.49F
OSCEOLA        CLOUDY    78  36  21 S23G31    29.49F
$$

WIZ003>005-009-010-017-018-020000-
NORTH CENTRAL WISCONSIN

CITY           SKY/WX    TMP DP  RH WIND       PRES   REMARKS
MANITOWISH WTR CLOUDY    55  37  50 S8        29.62F
ARBOR VITAE    CLOUDY    57  36  44 S12G20    29.61F
WOODRUFF       CLOUDY    57  36  44 S12G20    29.61F
RHINELANDER    CLOUDY    57  36  45 SE10      29.68F
EAGLE RIVER    CLOUDY    53  33  46 SE9       29.63F
LAND O LAKES   LGT RAIN  51  36  55 SE10G17   29.62F
PHILLIPS       CLOUDY    61  38  42 SE12G17   29.59F
TOMAHAWK       CLOUDY    61  36  38 SE3       29.65F
MEDFORD        CLOUDY    66  42  40 SE9       29.62F
MERRILL        CLOUDY    64  39  40 SE8       29.66F
$$

WIZ029-030-035-036-043>047-020000-
CENTRAL WISCONSIN

CITY           SKY/WX    TMP DP  RH WIND       PRES   REMARKS
WAUSAU         CLOUDY    68  37  32 SE9       29.64F
MOSINEE        SUNNY     68  36  30 S23G29    29.67F
MARSHFIELD     PTSUNNY   75  34  22 SW21G35   29.64F
STEVENS POINT  CLOUDY    71  36  27 S24G30    29.67F
WAUPACA        PTSUNNY   73  35  24 S13G23    29.71F
WAUTOMA        MOSUNNY   75  35  23 S18G30    29.70F
WISC RAPIDS    PTSUNNY   75  31  19 S21G29    29.68F
CAMP DOUGLAS   PTSUNNY   75  34  22 S21G29    29.67F
$$

WIZ011>013-019>022-031-037>040-048>050-020000-
NORTHEAST WISCONSIN

CITY           SKY/WX    TMP DP  RH WIND       PRES   REMARKS
ANTIGO         CLOUDY    55  39  55 SE15      29.71F
SHAWANO        CLOUDY    60  39  46 S9        29.73F
OCONTO         CLOUDY    49  37  63 S9        29.77F
STURGEON BAY   CLOUDY    45  36  70 S17G26    29.80F
GREEN BAY      PTSUNNY   56  41  57 S15       29.76F
MANITOWOC      MOSUNNY   46  37  71 S17G26    29.82F
APPLETON       MOSUNNY   61  37  41 SE17G23   29.75F
CLINTONVILLE   CLOUDY    59  37  44 SE13G18   29.71F
OSHKOSH        MOSUNNY   63  41  44 SE15      29.74F
$$

WIZ032>034-041-042-053>061-020000-
SOUTHWEST WISCONSIN

CITY           SKY/WX    TMP DP  RH WIND       PRES   REMARKS
LA CROSSE      PTSUNNY   78  32  18 S17G30    29.62F
SPARTA         MOSUNNY   76  28  16 S22G28    29.66F
VIROQUA        PTSUNNY   73  32  22 S20G31    29.68F
BOSCOBEL         N/A     78  31  17 S20G31    29.70F
PRAIRIE DU CHI SUNNY     77  26  15 S16G32    29.69F
PLATTEVILLE    SUNNY     74  34  23 S26G33    29.75S
$$

WIZ056-057-062-063-064-067-068-020000-
SOUTH CENTRAL WISCONSIN

CITY           SKY/WX    TMP DP  RH WIND       PRES   REMARKS
REEDSBURG      SUNNY     74  35  24 S25G32    29.71F
BARABOO/DELLS  SUNNY     74  30  20 S25G32    29.71F
LONE ROCK      SUNNY     77  31  18 S23G36    29.71F
MINERAL POINT  SUNNY     75  27  16 S20G30    29.74F
MADISON        PTSUNNY   74  33  22 S22G33    29.76S
MIDDLETON      SUNNY     76  27  16 S21G29    29.76S
WATERTOWN      SUNNY     73  36  26 S15G25    29.78S
MONROE         SUNNY     72  34  25 S22G31    29.78S
JANESVILLE     SUNNY     75  28  17 S26G32    29.79F
$$

WIZ051-052-058>065-066-070>072-020000-
SOUTHEAST WISCONSIN

CITY           SKY/WX    TMP DP  RH WIND       PRES   REMARKS
MILWAUKEE      PTSUNNY   60  35  39 S13G22    29.84F
WAUKESHA       MOSUNNY   68  37  32 SE12      29.82F
MILWAUKEE/TIMM SUNNY     64  34  32 SE13      29.83F
RACINE         SUNNY     53  35  50 S16       29.86F
BURLINGTON     SUNNY     70  35  27 S20G29    29.82F
KENOSHA        SUNNY     62  39  42 SE10      29.84F
FOND DU LAC    MOSUNNY   64  40  41 SE18      29.76F
SHEBOYGAN      MOSUNNY   52  37  56 S12       29.82F
WEST BEND      MOSUNNY   63  34  34 SE13      29.80F
JUNEAU         SUNNY     71  37  29 S20G26    29.78F
$$

LSZ147-162-020000-
LAKE SUPERIOR

STATION/POSITION TIME  TEMP    WIND        PRES    WAVE
                       AIR SEA DIR/SP/G            HT/PER
                 (UTC) (F)     (DEG/KT/KT) (MB)    (FT/S)
DEVILS ISLAND    2300   37      50/ 18/ 20  999.2F
PORT WING        2300   35      50/  8/ 21  999.0
SAXON HARBOR     2222   63     200/  8      999.3F
$$

LMZ867-665-643>646-020000-
LAKE MICHIGAN

STATION/POSITION TIME  TEMP    WIND        PRES    WAVE
                       AIR SEA DIR/SP/G            HT/PER
                 (UTC) (F)     (DEG/KT/KT) (MB)    (FT/S)
NORTHPORT PIER   2300   35     140/ 10/ 18 1009.5F
KEWAUNEE LAKESHO 2300   41     180/ 18/ 21 1008.6F
SHEBOYGAN LAKESH 2300   43     180/ 17/ 18 1010.6F
PORT WASHINGTON  2200   44     190/  5/  9 1011.5F
MILWAUKEE LAKESH 2300   45     150/ 17/ 19   N/A
KENOSHA   LAKESH 2300   46     170/ 19/ 20 1010.5F
$$

TC  - TEMPERATURE IN CELSIUS
VSB - VISIBILITY IN STATUTE MILES
WCI - WIND CHILL INDEX
HX  - HEAT INDEX




USA.gov is the U.S. government's official web portal to all federal, state and local government web resources and services.